SCP
1 1 2 2 1 1 1 0 0 1 1 1 1 1 1 1 1 1 1 1 1 1 1 0 0 0 1 1 1 1 1 1 1 1 1 1 1 1 1 1 1 1 1
1 1 2 2 1 1 1 1 1 1 1 1 1 1 1 1 2 1 1 1 1 1 1 1 1 1 1 1 1 1 1 1 1 1 1 1 1 1 1 1 1 1 1
1 1 2 2 2 1 1 1 1 1 1 1 0 0 1 1 1 1 1 1 1 1 1 1 1 1 1 1 2 2 1 1 1 1 1 1 1 1 1 1 1 1 1
1 1 2 2 2 2 1 1 1 1 1 1 0 0 1 1 1 1 1 1 1 1 1 1 1 1 1 2 2 2 2 2 1 1 1 1 1 1 1 1 1 1 1
1 1 2 2 2 2 1 1 1 1 1 1 0 0 1 1 1 1 1 1 1 1 1 1 1 1 1 2 2 2 2 2 2 1 1 1 1 1 1 1 1 1 1
1 1 2 3 2 2 1 1 1 1 1 1 1 0 1 1 1 1 1 1 1 1 1 1 1 1 1 2 2 2 2 2 1 1 1 1 1 1 1 1 1 1 1
1 1 2 2 2 1 1 1 1 1 1 1 1 1 1 1 1 1 1 1 1 1 1 1 1 1 1 2 2 2 1 1 1 1 1 1 1 1 1 1 1 1 1
1 1 2 2 2 1 1 1 1 1 1 1 1 1 1 1 1 1 1 1 1 1 1 1 1 1 1 2 2 2 1 1 1 1 1 1 1 1 1 1 1 1 1
1 1 1 2 1 1 1 1 1 1 1 1 1 1 1 1 1 1 1 1 1 1 1 1 1 1 2 2 2 2 1 1 1 1 1 1 1 1 1 1 1 1 1
1 1 1 1 1 1 1 1 1 1 1 1 1 1 1 1 1 1 1 1 1 1 1 1 1 1 2 2 2 2 1 1 1 1 1 1 1 1 1 1 1 1 1
1 1 1 1 1 1 0 0 1 1 1 1 1 1 1 1 1 1 1 1 1 1 1 1 1 1 2 2 2 2 1 1 1 1 1 1 1 1 1 1 1 1 1
1 1 1 1 1 1 1 1 1 1 1 1 1 1 1 1 1 1 1 1 1 1 1 1 1 1 2 2 2 2 1 1 1 1 1 1 2 1 1 1 1 1 1
1 1 1 1 1 1 1 1 1 1 1 1 1 1 1 1 1 1 1 1 1 1 1 2 2 2 2 2 2 1 1 1 1 1 1 2 2 2 1 1 1 1 1
1 1 1 1 1 1 1 1 1 1 1 1 1 1 1 1 1 1 1 1 1 1 1 2 2 2 2 2 2 2 1 1 1 1 2 2 2 2 1 1 1 1 1
1 1 1 1 1 1 2 2 1 1 1 1 1 1 1 1 1 1 1 1 1 1 1 2 2 3 3 3 2 2 2 1 1 1 2 2 2 2 2 1 1 1 1
1 1 2 2 2 2 2 2 1 1 1 1 1 1 1 1 1 1 2 1 1 1 1 1 2 3 3 3 3 2 2 2 1 1 2 2 2 2 2 1 1 1 1
1 1 3 3 3 3 2 2 2 1 1 1 1 1 1 1 1 1 2 1 1 1 1 1 2 2 3 3 3 3 3 3 2 2 2 2 2 2 1 1 1 1 2
1 2 3 3 3 3 3 3 2 2 2 1 1 1 1 1 1 1 1 1 1 1 1 1 2 2 3 3 4 4 4 4 3 2 2 2 2 2 2 1 1 2 2
2 2 3 4 3 3 3 3 3 3 3 2 2 2 2 2 2 2 2 2 1 1 1 2 2 2 3 3 3 4 4 4 4 3 2 2 2 2 2 2 2 2 2
2 3 3 3 3 3 3 3 3 4 3 3 2 2 2 2 2 2 2 2 2 2 2 2 3 3 3 3 3 4 4 4 4 4 3 2 2 2 2 2 2 2 2
2 2 2 2 2 3 3 3 4 4 4 3 3 3 3 2 2 2 2 3 3 3 3 3 4 4 4 4 4 4 4 4 4 4 4 2 2 2 2 2 2 2 2
2 2 2 2 2 3 3 4 4 4 4 3 3 3 2 2 2 2 3 3 3 3 4 4 5 5 4 5 5 5 4 4 4 4 4 3 2 2 2 2 2 2 2
3 3 2 2 3 3 4 4 5 5 4 3 3 3 2 2 2 3 3 3 3 3 4 4 5 5 4 4 5 5 4 4 3 4 3 3 2 2 2 2 2 2 2
3 3 3 3 3 5 5 6 6 5 5 4 3 3 2 2 2 3 3 3 3 3 3 4 4 4 4 4 5 5 5 4 4 4 4 3 3 2 2 2 2 2 2
3 3 3 4 5 6 7 7 6 6 5 5 4 3 2 2 3 3 3 3 3 3 3 3 4 4 4 4 4 4 5 5 5 5 4 3 3 3 2 2 2 2 2
2 2 3 4 6 7 7 7 6 6 6 5 5 3 3 2 2 3 3 3 3 3 3 3 4 4 4 4 4 4 5 5 5 5 5 4 3 2 2 2 2 2 1
Wind_Speed
5 8 12 10 10 10 10 11 12 12 11 12 12 11 10 10 10 9 9 8 8 8 8 8 8 9 8 8 8 8 7 7 7 8 8 8 8 8 8 7 8 7 8
6 9 13 11 10 10 11 11 11 11 11 11 11 11 10 10 9 9 8 8 8 8 8 8 8 8 8 8 8 8 7 7 7 8 8 9 8 8 8 7 5 4 7
8 10 12 11 11 10 10 10 10 10 10 10 10 10 9 9 9 8 8 8 8 8 8 8 8 7 7 7 7 7 7 7 7 7 8 7 8 9 8 7 6 6 7
8 10 10 12 10 10 10 9 10 10 9 9 9 9 9 8 8 8 8 7 7 7 7 7 7 7 6 6 6 6 6 6 6 7 6 5 6 9 8 7 7 7 8
8 9 12 11 10 10 9 8 8 9 9 8 8 8 8 8 7 7 7 7 7 7 7 7 7 7 6 6 6 6 6 6 6 7 5 4 4 8 7 6 6 7 8
7 8 12 10 10 9 9 8 7 7 8 7 7 7 7 7 7 7 7 7 7 6 7 7 7 6 6 6 6 6 5 6 7 5 4 4 4 8 6 6 7 7 7
7 8 11 11 9 9 8 8 7 7 7 6 6 6 6 6 6 7 7 7 6 6 7 7 7 7 6 6 5 5 6 7 6 4 4 4 3 6 5 5 6 7 8
7 7 10 11 9 8 8 7 7 6 6 6 6 6 6 5 5 6 6 6 6 6 6 7 7 7 6 6 6 6 6 8 6 5 5 5 6 6 6 6 6 7 8
6 7 8 8 10 10 8 7 7 6 5 5 5 5 5 6 5 5 5 6 6 6 6 6 6 6 6 6 6 6 6 7 6 3 4 3 7 7 7 7 7 7 8
6 5 6 6 6 7 8 9 7 5 4 4 4 4 5 6 7 7 7 6 6 6 6 6 6 6 6 6 6 6 7 8 6 4 3 3 6 6 7 7 7 8 8
5 4 4 5 6 5 5 7 7 7 5 5 5 5 6 5 6 6 5 5 6 6 6 6 6 7 7 7 8 8 8 5 4 3 2 4 5 6 6 7 7 8 9
6 5 4 5 5 5 4 4 4 4 4 3 2 3 3 3 2 3 5 6 6 6 7 7 7 8 9 6 8 9 5 5 4 3 2 5 5 6 6 7 7 8 8
6 5 5 4 4 3 3 3 2 2 2 3 2 2 2 2 3 3 3 5 6 7 6 7 8 6 4 3 3 4 4 4 2 2 3 6 5 6 6 6 6 7 8
5 5 5 5 4 3 2 2 2 2 2 2 3 3 2 2 1 1 1 2 2 2 3 3 3 4 4 4 4 4 4 3 2 2 2 5 6 7 7 6 6 6 6
5 5 4 4 4 3 2 2 2 1 1 2 2 2 2 2 2 1 1 1 2 1 3 3 3 3 3 4 4 3 3 3 3 3 2 5 6 7 7 7 7 7 7
5 5 4 4 4 4 3 2 1 2 2 2 2 2 3 2 2 2 2 2 2 2 1 2 3 3 3 2 3 3 4 3 3 3 3 4 7 7 8 8 7 7 7
5 4 4 5 4 4 4 3 2 2 2 2 2 2 3 3 3 3 2 2 2 2 3 3 3 3 3 3 3 3 3 3 3 3 4 3 4 7 8 8 7 7 6
4 4 4 4 4 5 3 3 2 2 2 2 2 2 3 3 3 3 2 2 1 2 3 2 3 2 2 2 2 2 2 2 4 4 4 4 3 3 6 8 7 7 7
4 4 4 3 4 4 4 3 3 2 2 2 2 2 2 3 3 4 3 2 3 2 2 3 1 2 2 2 2 3 2 3 3 4 4 4 4 4 4 6 8 7 7
4 4 4 4 3 4 4 3 3 3 2 2 2 2 2 3 3 4 3 3 3 3 2 2 2 3 3 3 3 2 2 3 3 3 4 4 4 5 5 4 5 7 9
5 5 5 5 4 3 3 3 3 3 2 2 2 2 3 3 3 3 3 2 3 3 3 4 4 4 4 2 3 2 3 4 3 3 3 3 3 3 3 4 4 3 5
6 6 6 5 5 5 3 3 2 2 2 2 2 2 3 3 3 3 3 3 3 3 4 4 4 4 3 3 3 3 3 3 4 3 3 3 3 3 4 4 3 4 4
7 7 5 5 5 5 4 3 3 3 2 2 2 2 2 3 3 3 3 3 3 4 3 4 5 5 4 3 3 3 2 1 0 2 3 3 2 2 3 3 4 4 4
7 7 6 6 5 5 5 4 4 2 2 2 1 1 2 2 2 2 2 3 3 3 3 4 4 4 4 3 3 3 3 2 2 2 3 3 3 3 3 3 3 4 5
8 7 7 7 6 6 5 5 4 3 2 2 1 1 1 1 1 1 1 2 2 3 3 3 2 3 3 3 3 2 3 3 4 3 2 2 3 3 3 4 3 3 4
8 7 7 7 7 7 6 5 5 4 3 2 2 1 2 2 1 1 2 2 2 2 2 3 3 4 4 4 3 3 3 3 3 4 4 3 3 2 2 2 3 3 4
Wind_Direction
132 129 127 134 135 134 135 139 142 144 147 146 146 145 148 149 149 148 150 149 150 149 147 141 139 145 148 150 149 146 145 144 144 149 151 155 157 159 163 170 179 163 140
128 129 129 136 135 135 133 135 139 141 143 142 144 150 153 154 154 153 152 152 150 148 146 144 145 147 150 152 150 150 152 153 154 157 163 165 165 168 173 183 206 135 150
128 131 136 134 134 133 132 134 137 138 142 142 145 150 152 152 153 155 156 155 153 152 154 153 155 153 151 152 151 152 155 158 163 172 188 185 163 170 179 183 181 168 170
129 132 131 129 133 130 130 133 134 136 141 142 146 148 150 152 156 159 157 156 155 156 159 159 158 157 157 157 155 157 158 165 179 197 199 185 168 154 178 186 190 187 183
131 130 123 132 134 132 131 131 132 136 141 143 145 148 151 154 157 158 158 156 158 161 163 163 161 159 158 157 157 159 166 177 192 210 191 182 167 138 165 181 190 190 188
131 129 124 135 134 132 129 129 129 131 137 140 143 148 153 156 159 157 157 158 162 165 166 167 167 164 163 160 163 169 181 193 207 202 188 189 173 141 169 188 194 189 186
129 130 129 135 136 137 133 134 135 134 138 143 144 150 156 161 163 162 166 166 166 169 174 175 174 172 173 173 174 181 197 211 221 210 196 195 158 140 170 184 189 192 188
130 132 130 138 141 140 141 142 143 142 143 148 154 156 161 165 170 173 176 177 178 180 179 181 182 181 186 189 189 193 209 229 213 212 207 190 148 157 182 195 193 195 195
130 132 135 147 149 151 148 150 151 149 150 155 160 165 170 175 180 186 188 191 190 188 187 186 189 189 193 200 200 203 216 236 245 227 220 191 150 176 196 204 203 198 195
133 138 141 144 147 156 152 153 156 154 157 158 161 172 180 186 189 195 200 197 197 196 195 194 198 198 197 202 205 209 222 233 234 228 225 152 149 189 203 206 208 201 196
140 144 146 145 152 155 150 147 164 166 168 183 177 183 204 199 191 193 185 189 201 206 206 205 206 207 207 201 205 214 226 231 229 236 220 123 163 201 210 210 210 206 201
148 148 150 149 148 152 148 151 174 175 167 192 178 189 194 183 190 199 155 189 205 210 212 214 216 215 221 209 197 208 223 226 233 222 166 145 187 211 217 216 214 211 207
144 146 151 152 153 159 152 162 170 174 163 177 171 200 200 200 187 201 188 189 199 208 214 204 213 219 214 216 224 211 217 225 225 224 147 149 189 213 218 215 213 214 211
148 152 159 156 165 174 179 177 180 184 168 175 163 209 200 200 203 203 214 206 208 207 209 230 223 219 220 220 227 229 217 223 225 223 150 159 188 207 215 217 217 216 211
156 159 162 165 170 176 186 218 186 190 175 169 202 197 222 206 202 201 229 241 234 218 203 214 232 230 226 221 225 224 230 228 239 235 178 172 193 206 214 220 221 215 211
171 169 166 179 173 180 191 206 206 201 184 210 198 196 218 217 207 215 216 227 234 228 234 234 228 231 233 227 227 232 241 230 227 237 234 191 192 206 215 220 222 218 215
175 174 173 179 177 183 196 204 200 209 206 221 202 196 212 215 209 228 231 228 222 222 217 225 225 222 217 215 218 225 227 234 230 234 239 235 207 199 207 216 220 218 219
179 172 183 183 180 184 194 209 212 213 211 227 227 207 212 226 227 237 240 241 236 232 226 217 226 221 219 222 214 228 220 216 228 231 230 228 232 211 195 201 212 214 216
179 179 184 186 191 193 194 197 210 205 225 236 231 227 209 220 227 234 243 245 241 236 235 239 201 237 221 228 213 205 213 216 221 223 223 223 222 228 219 183 197 206 210
175 178 184 188 189 199 195 192 205 207 208 216 218 220 232 223 225 238 229 230 239 231 232 230 218 227 239 240 246 215 223 216 213 209 219 212 214 222 224 214 199 194 199
181 183 190 196 185 196 199 211 208 213 219 214 215 207 221 231 223 233 250 220 238 233 237 229 227 216 225 227 239 225 213 212 207 206 215 216 202 212 214 217 229 217 187
188 192 195 196 192 199 197 217 224 233 233 228 240 204 225 229 231 222 236 238 230 233 226 226 224 241 227 214 246 240 221 196 200 201 198 205 207 208 211 206 211 217 232
199 197 200 201 198 201 202 207 208 203 223 211 213 201 219 230 231 253 233 244 239 241 223 223 222 229 233 220 231 260 264 253 189 185 211 212 215 227 223 206 210 207 218
203 195 198 197 199 199 204 215 221 223 234 246 242 204 197 209 220 226 230 230 244 249 237 236 223 233 238 230 210 240 272 305 271 227 204 200 212 228 240 236 216 204 209
201 195 190 188 193 196 203 206 219 229 236 238 236 206 222 196 220 236 235 237 235 247 247 258 250 246 238 246 238 229 231 233 243 252 249 245 232 226 221 229 228 218 208
198 195 188 184 190 194 198 201 210 221 238 253 249 240 224 196 199 209 224 231 241 250 243 244 246 236 247 249 250 242 232 232 236 242 251 248 248 237 226 236 235 223 213